Change the Weather History Date:

Friday, November 1, 2013

  Actual Average Record
Temperature  
Mean Temperature 76 °F -  
Max Temperature 84 °F 73 °F 90 °F (1942)
Min Temperature 70 °F 55 °F 31 °F (1954)
Cooling Degree Days 11    
Growing Degree Days 26 (Base 50)    
Moisture  
Dew Point 68 °F    
Average Humidity 81    
Maximum Humidity 93    
Minimum Humidity 58    
Precipitation  
Precipitation 0.43 in - - ()
Sea Level Pressure  
Sea Level Pressure 29.85 in    
Wind  
Wind Speed 8 mph (SW)    
Max Wind Speed 15 mph    
Max Gust Speed 24 mph    
Visibility 9 miles    
Events Rain    
Averages and records for this station are not official NWS values.
T = Trace of Precipitation, MM = Missing Value Source: NWS Daily Summary

Daily Weather History Graph

Daily Weather History Graph

Search for Another Location

Airport or City:

Trip Planner

Search our weather history database for the weather conditions in past years. The results will help you decide how hot, cold, wet, or windy it might be!

Date:

Astronomy

Nov. 01, 2013 Rise Set
Actual Time 7:40 AM EDT 6:32 PM EDT
Civil Twilight 7:14 AM EDT 6:57 PM EDT
Nautical Twilight 6:45 AM EDT 7:26 PM EDT
Astronomical Twilight 6:17 AM EDT 7:55 PM EDT
Moon 5:37 AM EDT 5:19 PM EDT
Length of Visible Light 11h 42m
Length of Day
10h 51m
Waning Crescent, 4% of the Moon is Illuminated
Nov 1
Waning Crescent
Nov 3
New
Nov 10
First Quarter
Nov 17
Full
Nov 25
Last Quarter

Hourly Weather History & Observations

Time (EDT) Temp. Heat Index Dew Point Humidity Pressure Visibility Wind Dir Wind Speed Gust Speed Precip Events Conditions
12:56 AM 72.0 °F - 68.0 °F 87% 29.99 in 10.0 mi SSW 4.6 mph - N/A   Clear
1:56 AM 73.0 °F - 68.0 °F 84% 29.96 in 10.0 mi SSW 8.1 mph - N/A   Clear
2:56 AM 73.0 °F - 68.0 °F 84% 29.94 in 10.0 mi SSW 8.1 mph - N/A   Clear
3:56 AM 72.0 °F - 68.0 °F 87% 29.92 in 10.0 mi SSW 5.8 mph - N/A   Clear
4:56 AM 72.0 °F - 66.9 °F 84% 29.91 in 10.0 mi SSW 6.9 mph - N/A   Clear
5:56 AM 71.1 °F - 66.9 °F 87% 29.89 in 10.0 mi SSW 9.2 mph - N/A   Clear
6:56 AM 71.1 °F - 66.9 °F 87% 29.89 in 10.0 mi SSW 6.9 mph - N/A   Scattered Clouds
7:56 AM 71.1 °F - 66.9 °F 87% 29.91 in 10.0 mi SW 9.2 mph - N/A   Mostly Cloudy
8:56 AM 73.0 °F - 66.9 °F 81% 29.92 in 10.0 mi SSW 9.2 mph - N/A   Mostly Cloudy
9:56 AM 73.9 °F - 66.9 °F 79% 29.93 in 10.0 mi SSW 6.9 mph - N/A   Mostly Cloudy
10:56 AM 75.0 °F - 66.0 °F 73% 29.92 in 10.0 mi SSW 8.1 mph - N/A   Overcast
11:56 AM 77.0 °F - 64.9 °F 66% 29.88 in 10.0 mi SSW 8.1 mph 19.6 mph N/A   Mostly Cloudy
12:56 PM 81.0 °F 83.3 °F 66.9 °F 62% 29.86 in 10.0 mi SSW 13.8 mph 24.2 mph N/A   Mostly Cloudy
1:56 PM 82.9 °F 85.4 °F 66.9 °F 58% 29.82 in 10.0 mi SSW 15.0 mph 21.9 mph N/A   Mostly Cloudy
2:56 PM 81.0 °F 82.7 °F 64.9 °F 58% 29.79 in 10.0 mi SW 13.8 mph 24.2 mph N/A   Mostly Cloudy
3:56 PM 80.1 °F 81.9 °F 64.9 °F 60% 29.80 in 10.0 mi SW 9.2 mph 17.3 mph N/A   Overcast
4:56 PM 77.0 °F - 68.0 °F 74% 29.80 in 10.0 mi South 8.1 mph - N/A   Overcast
5:56 PM 75.9 °F - 68.0 °F 76% 29.78 in 10.0 mi SSW 9.2 mph - N/A   Mostly Cloudy
6:56 PM 75.0 °F - 68.0 °F 79% 29.77 in 10.0 mi South 8.1 mph - N/A   Mostly Cloudy
7:56 PM 73.9 °F - 69.1 °F 85% 29.80 in 9.0 mi SSW 10.4 mph 16.1 mph 0.00 in Rain Light Rain
8:56 PM 73.0 °F - 69.1 °F 87% 29.80 in 6.0 mi SSW 5.8 mph - 0.02 in Rain Rain
9:22 PM 72.0 °F - 70.0 °F 93% 29.79 in 2.5 mi South 3.5 mph - 0.09 in Rain Rain
9:44 PM 72.0 °F - 70.0 °F 93% 29.79 in 3.0 mi SSW 6.9 mph - 0.16 in Rain Rain
9:56 PM 72.0 °F - 70.0 °F 93% 29.78 in 7.0 mi South 5.8 mph - 0.16 in Rain Light Rain
10:38 PM 71.1 °F - 69.1 °F 93% 29.80 in 7.0 mi NW 9.2 mph - 0.12 in Rain Light Rain
10:56 PM 71.1 °F - 69.1 °F 93% 29.79 in 10.0 mi NW 4.6 mph - 0.13 in Rain Light Rain
11:41 PM 70.0 °F - 66.9 °F 90% 29.80 in 3.0 mi WNW 9.2 mph - 0.06 in Rain Rain
11:56 PM 70.0 °F - 66.9 °F 90% 29.80 in 3.0 mi WNW 8.1 mph - 0.12 in Rain Rain